RYR27JN LIPQ-EGSS

Flight info

Callsign RYR27JN
Flight time 1h 54m
Altitude 38000
Route RIFEN Y526 ELPEZ P125 URAVA DCT VEKEN DCT UMVEG DCT KPT L608 TEDGO DCT SUNEG L608 ULNOK DCT ADENU L608 LIRSU DCT SOGRI DCT NIK DCT KOZUF DCT IMPOH DCT SASKI L608 SUMUM Y6 TOSVA
Aircraft B738/M-SDE2E3FGHIRWXY/LB1

Departure

Time 2026-05-04 21:05
Airport Trieste Airport (LIPQ)

Arrival

Time 2026-05-04 22:59
Airport London Stansted Airport (EGSS)
Time Latitude Longitude Altitude Speed Heading
2026-05-04 20:49 45.82188 13.48303 46 ft 0 kts 171°
2026-05-04 21:01 45.82187 13.48303 44 ft 0 kts 176°
2026-05-04 21:01 45.82185 13.48295 44 ft 1 kts 251°
2026-05-04 21:01 45.82194 13.48288 46 ft 2 kts 340°
2026-05-04 21:01 45.82210 13.48282 46 ft 3 kts 351°
2026-05-04 21:02 45.82232 13.48279 46 ft 7 kts
2026-05-04 21:02 45.82263 13.48359 46 ft 12 kts 79°
2026-05-04 21:02 45.82280 13.48490 46 ft 14 kts 79°
2026-05-04 21:02 45.82334 13.48572 46 ft 13 kts
2026-05-04 21:03 45.82422 13.48574 46 ft 12 kts
2026-05-04 21:03 45.82507 13.48573 46 ft 12 kts 359°
2026-05-04 21:03 45.82594 13.48571 46 ft 13 kts 359°
2026-05-04 21:03 45.82691 13.48574 46 ft 15 kts
2026-05-04 21:04 45.82770 13.48510 45 ft 18 kts 281°
2026-05-04 21:04 45.82781 13.47990 42 ft 89 kts 270°
2026-05-04 21:04 45.82787 13.46788 46 ft 152 kts 270°
2026-05-04 21:04 45.82812 13.45134 505 ft 169 kts 271°
2026-05-04 21:05 45.82819 13.43431 1346 ft 168 kts 265°
2026-05-04 21:05 45.82372 13.41901 2086 ft 173 kts 225°
2026-05-04 21:05 45.81265 13.41053 2525 ft 199 kts 190°
2026-05-04 21:05 45.79836 13.41349 2898 ft 221 kts 155°
2026-05-04 21:06 45.78676 13.42850 3390 ft 233 kts 120°
2026-05-04 21:06 45.78251 13.45086 4119 ft 237 kts 88°
2026-05-04 21:06 45.78698 13.47376 4700 ft 251 kts 57°
2026-05-04 21:06 45.80019 13.49139 4950 ft 273 kts 21°
2026-05-04 21:07 45.81887 13.49736 5587 ft 278 kts
2026-05-04 21:07 45.83833 13.49879 6348 ft 282 kts 358°
2026-05-04 21:07 45.85803 13.49953 7157 ft 286 kts 358°
2026-05-04 21:07 45.87800 13.50023 7973 ft 290 kts 358°
2026-05-04 21:08 45.89819 13.50105 8728 ft 295 kts 359°
2026-05-04 21:08 45.91886 13.50200 9451 ft 300 kts 359°
2026-05-04 21:08 45.93985 13.50308 10184 ft 304 kts 360°
2026-05-04 21:08 45.96158 13.50426 10599 ft 323 kts
2026-05-04 21:09 45.98126 13.50534 10756 ft 343 kts
2026-05-04 21:09 46.00540 13.50673 11177 ft 356 kts
2026-05-04 21:09 46.03023 13.50823 11862 ft 360 kts
2026-05-04 21:09 46.05554 13.50978 12620 ft 364 kts
2026-05-04 21:10 46.08102 13.51135 13330 ft 369 kts
2026-05-04 21:10 46.10681 13.51292 14103 ft 372 kts
2026-05-04 21:10 46.13276 13.51452 14911 ft 374 kts
2026-05-04 21:10 46.15875 13.51612 15690 ft 377 kts
2026-05-04 21:11 46.18508 13.51774 16444 ft 379 kts
2026-05-04 21:11 46.21155 13.51938 17204 ft 382 kts
2026-05-04 21:11 46.23824 13.52103 17911 ft 385 kts
2026-05-04 21:11 46.26505 13.52268 18614 ft 388 kts
2026-05-04 21:12 46.29212 13.52434 19270 ft 391 kts
2026-05-04 21:12 46.31948 13.52603 19903 ft 396 kts
2026-05-04 21:12 46.34710 13.52774 20519 ft 399 kts
2026-05-04 21:12 46.37494 13.52945 21125 ft 402 kts
2026-05-04 21:13 46.40295 13.52736 21672 ft 406 kts 348°
2026-05-04 21:13 46.42994 13.51535 22254 ft 407 kts 335°
2026-05-04 21:13 46.45430 13.49477 22803 ft 408 kts 323°
2026-05-04 21:13 46.47724 13.47023 23342 ft 410 kts 322°
2026-05-04 21:14 46.50026 13.44543 23834 ft 414 kts 322°
2026-05-04 21:14 46.52350 13.42093 24322 ft 417 kts 323°
2026-05-04 21:14 46.54707 13.39606 24817 ft 419 kts 320°
2026-05-04 21:14 46.56835 13.36706 25301 ft 421 kts 310°
2026-05-04 21:15 46.58597 13.33317 25766 ft 422 kts 302°
2026-05-04 21:15 46.60201 13.29736 26235 ft 424 kts 301°
2026-05-04 21:15 46.61787 13.26111 26674 ft 426 kts 301°
2026-05-04 21:15 46.63358 13.22507 27087 ft 429 kts 301°
2026-05-04 21:16 46.64964 13.18837 27502 ft 432 kts 301°
2026-05-04 21:16 46.66610 13.15102 27917 ft 434 kts 301°
2026-05-04 21:16 46.68250 13.11393 28320 ft 436 kts 301°
2026-05-04 21:16 46.69900 13.07669 28711 ft 438 kts 301°
2026-05-04 21:17 46.71557 13.03936 29081 ft 441 kts 301°
2026-05-04 21:17 46.73226 13.00171 29430 ft 443 kts 301°
2026-05-04 21:17 46.74880 12.96436 29756 ft 445 kts 301°
2026-05-04 21:17 46.76563 12.92629 30065 ft 448 kts 301°
2026-05-04 21:18 46.78253 12.88806 30391 ft 450 kts 301°
2026-05-04 21:18 46.79947 12.84965 30732 ft 450 kts 301°
2026-05-04 21:18 46.81637 12.81128 31184 ft 448 kts 301°
2026-05-04 21:18 46.83315 12.77313 31650 ft 445 kts 301°
2026-05-04 21:19 46.84982 12.73517 32128 ft 443 kts 301°
2026-05-04 21:19 46.86642 12.69733 32544 ft 441 kts 301°
2026-05-04 21:19 46.88293 12.65962 32934 ft 441 kts 300°
2026-05-04 21:19 46.89942 12.62190 33319 ft 439 kts 300°
2026-05-04 21:20 46.91579 12.58436 33692 ft 437 kts 300°
2026-05-04 21:20 46.93212 12.54693 34021 ft 436 kts 300°
2026-05-04 21:20 46.94843 12.50949 34410 ft 435 kts 300°
2026-05-04 21:20 46.96465 12.47221 34770 ft 433 kts 300°
2026-05-04 21:21 46.98077 12.43509 35062 ft 433 kts 300°
2026-05-04 21:21 46.99693 12.39782 35333 ft 433 kts 300°
2026-05-04 21:21 47.01304 12.36066 35646 ft 432 kts 300°
2026-05-04 21:21 47.02907 12.32358 35971 ft 430 kts 300°
2026-05-04 21:22 47.04506 12.28656 36257 ft 430 kts 300°
2026-05-04 21:22 47.06105 12.24950 36490 ft 430 kts 300°
2026-05-04 21:22 47.07701 12.21244 36769 ft 429 kts 300°
2026-05-04 21:22 47.09292 12.17545 37101 ft 428 kts 300°
2026-05-04 21:23 47.10872 12.13868 37436 ft 425 kts 300°
2026-05-04 21:23 47.12444 12.10204 37738 ft 423 kts 300°
2026-05-04 21:23 47.14010 12.06549 37992 ft 422 kts 300°
2026-05-04 21:23 47.15573 12.02896 38075 ft 425 kts 300°
2026-05-04 21:24 47.18723 11.95520 38057 ft 424 kts 300°
2026-05-04 21:24 47.21787 11.88204 38042 ft 416 kts 296°
2026-05-04 21:25 47.24496 11.80688 38021 ft 415 kts 294°
2026-05-04 21:25 47.27103 11.73165 38004 ft 415 kts 294°
2026-05-04 21:26 47.29740 11.65598 38001 ft 415 kts 295°
2026-05-04 21:26 47.32394 11.58023 37987 ft 416 kts 295°
2026-05-04 21:27 47.35059 11.50425 37981 ft 417 kts 295°
2026-05-04 21:27 47.37723 11.42811 37961 ft 418 kts 295°
2026-05-04 21:28 47.40390 11.35162 37981 ft 420 kts 295°
2026-05-04 21:28 47.43055 11.27493 37959 ft 420 kts 294°
2026-05-04 21:29 47.45722 11.19803 37970 ft 421 kts 294°
2026-05-04 21:29 47.48384 11.12098 37977 ft 420 kts 294°
2026-05-04 21:30 47.51037 11.04399 37983 ft 420 kts 294°
2026-05-04 21:30 47.53681 10.96708 37993 ft 419 kts 294°
2026-05-04 21:31 47.57634 10.85162 37990 ft 419 kts 294°
2026-05-04 21:32 47.60259 10.77465 37991 ft 419 kts 294°
2026-05-04 21:32 47.62860 10.69814 37997 ft 418 kts 294°
2026-05-04 21:33 47.65466 10.62127 38000 ft 417 kts 294°
2026-05-04 21:33 47.68068 10.54428 38000 ft 418 kts 293°
2026-05-04 21:34 47.70665 10.46725 38000 ft 418 kts 293°
2026-05-04 21:34 47.73271 10.39006 38004 ft 419 kts 296°
2026-05-04 21:35 47.76855 10.32117 37999 ft 427 kts 314°
2026-05-04 21:35 47.81451 10.26474 38001 ft 430 kts 317°
2026-05-04 21:36 47.86123 10.20902 37993 ft 430 kts 317°
2026-05-04 21:36 47.90776 10.15275 37995 ft 431 kts 317°
2026-05-04 21:37 47.95411 10.09604 37992 ft 431 kts 317°
2026-05-04 21:37 48.00038 10.03920 37991 ft 431 kts 317°
2026-05-04 21:38 48.04671 9.98216 37987 ft 431 kts 317°
2026-05-04 21:38 48.09301 9.92500 37983 ft 432 kts 317°
2026-05-04 21:39 48.13932 9.86770 37959 ft 432 kts 316°
2026-05-04 21:39 48.18553 9.81039 37972 ft 431 kts 316°
2026-05-04 21:40 48.23167 9.75300 37980 ft 431 kts 316°
2026-05-04 21:40 48.27778 9.69552 37962 ft 431 kts 316°
2026-05-04 21:41 48.32378 9.63804 37963 ft 430 kts 316°
2026-05-04 21:41 48.36961 9.58018 37979 ft 430 kts 316°
2026-05-04 21:42 48.41500 9.52171 37979 ft 429 kts 315°
2026-05-04 21:42 48.46031 9.46323 37979 ft 429 kts 315°
2026-05-04 21:43 48.50563 9.40468 37979 ft 429 kts 315°
2026-05-04 21:43 48.55093 9.34606 37983 ft 429 kts 315°
2026-05-04 21:44 48.59596 9.28768 37977 ft 430 kts 315°
2026-05-04 21:44 48.64651 9.23771 37977 ft 437 kts 332°
2026-05-04 21:45 48.70201 9.20103 37952 ft 439 kts 333°
2026-05-04 21:45 48.75813 9.16430 37962 ft 439 kts 333°
2026-05-04 21:46 48.81409 9.12686 37978 ft 440 kts 332°
2026-05-04 21:46 48.86998 9.08898 37978 ft 440 kts 332°
2026-05-04 21:47 48.92591 9.05095 37975 ft 441 kts 332°
2026-05-04 21:47 48.98201 9.01273 37971 ft 442 kts 332°
2026-05-04 21:48 49.03798 8.97452 37981 ft 442 kts 332°
2026-05-04 21:48 49.09405 8.93615 37983 ft 442 kts 332°
2026-05-04 21:49 49.15023 8.89758 37980 ft 442 kts 332°
2026-05-04 21:49 49.20655 8.85943 37962 ft 444 kts 335°
2026-05-04 21:50 49.25532 8.83431 37979 ft 445 kts 339°
2026-05-04 21:50 49.31468 8.80676 37962 ft 446 kts 339°
2026-05-04 21:51 49.37394 8.77864 37967 ft 445 kts 339°
2026-05-04 21:51 49.43296 8.74986 37965 ft 445 kts 339°
2026-05-04 21:52 49.49198 8.72079 37963 ft 445 kts 339°
2026-05-04 21:52 49.55101 8.69169 37980 ft 445 kts 339°
2026-05-04 21:53 49.61009 8.66249 37979 ft 446 kts 339°
2026-05-04 21:53 49.66922 8.63325 37963 ft 447 kts 338°
2026-05-04 21:54 49.72523 8.59460 37980 ft 438 kts 322°
2026-05-04 21:54 49.77092 8.53393 37991 ft 432 kts 311°
2026-05-04 21:55 49.81426 8.46944 37996 ft 432 kts 312°
2026-05-04 21:55 49.83428 8.43512 37977 ft 427 kts 300°
2026-05-04 21:55 49.84882 8.39564 38003 ft 420 kts 289°
2026-05-04 21:55 49.85817 8.35310 37988 ft 415 kts 278°
2026-05-04 21:56 49.86347 8.31099 38005 ft 414 kts 276°
2026-05-04 21:56 49.87365 8.22303 37997 ft 415 kts 276°
2026-05-04 21:57 49.88396 8.13489 37990 ft 417 kts 276°
2026-05-04 21:57 49.89454 8.04627 37992 ft 418 kts 276°
2026-05-04 21:58 49.90520 7.95761 37993 ft 418 kts 276°
2026-05-04 21:58 49.91575 7.86944 37988 ft 418 kts 276°
2026-05-04 21:59 49.92628 7.78064 37993 ft 418 kts 276°
2026-05-04 21:59 49.93674 7.69190 37987 ft 418 kts 276°
2026-05-04 22:00 49.94713 7.60323 37992 ft 417 kts 276°
2026-05-04 22:00 49.95742 7.51469 37990 ft 416 kts 276°
2026-05-04 22:01 49.96762 7.42630 37986 ft 415 kts 276°
2026-05-04 22:01 49.97774 7.33792 37993 ft 415 kts 276°
2026-05-04 22:02 49.98776 7.24982 37986 ft 414 kts 276°
2026-05-04 22:02 49.99773 7.16162 37989 ft 414 kts 276°
2026-05-04 22:03 50.00764 7.07333 37996 ft 415 kts 276°
2026-05-04 22:03 50.01750 6.98495 37993 ft 416 kts 276°
2026-05-04 22:04 50.03073 6.89713 37986 ft 422 kts 287°
2026-05-04 22:04 50.05784 6.81559 37988 ft 427 kts 295°
2026-05-04 22:05 50.08703 6.73561 37985 ft 428 kts 295°
2026-05-04 22:05 50.11605 6.65452 37982 ft 429 kts 295°
2026-05-04 22:06 50.14484 6.57297 37979 ft 430 kts 294°
2026-05-04 22:06 50.17361 6.49123 37979 ft 430 kts 295°
2026-05-04 22:07 50.20463 6.41116 37987 ft 433 kts 300°
2026-05-04 22:07 50.23956 6.33421 37968 ft 435 kts 302°
2026-05-04 22:08 50.27474 6.25733 37978 ft 435 kts 301°
2026-05-04 22:08 50.30964 6.17998 37961 ft 435 kts 301°
2026-05-04 22:09 50.34435 6.10236 37964 ft 435 kts 301°
2026-05-04 22:09 50.37894 6.02456 37969 ft 435 kts 301°
2026-05-04 22:10 50.41346 5.94669 37961 ft 435 kts 301°
2026-05-04 22:10 50.44790 5.86880 37973 ft 434 kts 301°
2026-05-04 22:11 50.48226 5.79086 37959 ft 434 kts 300°
2026-05-04 22:11 50.51657 5.71284 37958 ft 434 kts 301°
2026-05-04 22:12 50.55079 5.63479 37972 ft 433 kts 300°
2026-05-04 22:12 50.58489 5.55678 37963 ft 433 kts 301°
2026-05-04 22:13 50.61890 5.47877 37965 ft 432 kts 300°
2026-05-04 22:13 50.65277 5.40080 37957 ft 431 kts 300°
2026-05-04 22:14 50.68633 5.32330 37967 ft 431 kts 300°
2026-05-04 22:14 50.72003 5.24519 37960 ft 431 kts 300°
2026-05-04 22:15 50.75372 5.16692 37967 ft 431 kts 300°
2026-05-04 22:15 50.78738 5.08854 37964 ft 431 kts 300°
2026-05-04 22:16 50.82093 5.00999 37967 ft 431 kts 300°
2026-05-04 22:16 50.85424 4.93113 37966 ft 431 kts 300°
2026-05-04 22:17 50.88753 4.85202 37958 ft 432 kts 300°
2026-05-04 22:17 50.92084 4.77274 37968 ft 432 kts 300°
2026-05-04 22:18 50.95408 4.69340 37964 ft 432 kts 300°
2026-05-04 22:18 50.98725 4.61392 37965 ft 432 kts 300°
2026-05-04 22:19 51.02041 4.53428 37971 ft 432 kts 300°
2026-05-04 22:19 51.05348 4.45459 37961 ft 432 kts 300°
2026-05-04 22:20 51.08649 4.37479 37963 ft 432 kts 300°
2026-05-04 22:20 51.11943 4.29493 37963 ft 432 kts 300°
2026-05-04 22:21 51.15228 4.21506 37977 ft 431 kts 300°
2026-05-04 22:21 51.18400 4.13405 37961 ft 430 kts 296°
2026-05-04 22:22 51.21341 4.05110 37968 ft 429 kts 296°
2026-05-04 22:22 51.24271 3.96814 37978 ft 429 kts 296°
2026-05-04 22:23 51.27201 3.88587 37979 ft 429 kts 296°
2026-05-04 22:23 51.30155 3.80301 37986 ft 429 kts 296°
2026-05-04 22:24 51.33105 3.72007 37980 ft 429 kts 296°
2026-05-04 22:24 51.35789 3.63526 37977 ft 425 kts 284°
2026-05-04 22:25 51.37372 3.54465 38003 ft 423 kts 282°
2026-05-04 22:25 51.38907 3.45372 37920 ft 425 kts 282°
2026-05-04 22:25 51.39697 3.40781 37479 ft 428 kts 283°
2026-05-04 22:26 51.40490 3.36204 36946 ft 426 kts 283°
2026-05-04 22:26 51.41284 3.31641 36436 ft 425 kts 283°
2026-05-04 22:26 51.42079 3.27075 35895 ft 425 kts 282°
2026-05-04 22:26 51.42867 3.22520 35324 ft 425 kts 282°
2026-05-04 22:27 51.43653 3.17959 34715 ft 426 kts 282°
2026-05-04 22:27 51.44439 3.13388 34099 ft 426 kts 282°
2026-05-04 22:27 51.45223 3.08805 33474 ft 427 kts 282°
2026-05-04 22:27 51.45993 3.04190 32830 ft 428 kts 281°
2026-05-04 22:28 51.46751 2.99577 32276 ft 426 kts 281°
2026-05-04 22:28 51.47501 2.95001 31814 ft 423 kts 281°
2026-05-04 22:28 51.48242 2.90476 31344 ft 419 kts 281°
2026-05-04 22:28 51.48981 2.85958 30868 ft 416 kts 281°
2026-05-04 22:29 51.49709 2.81497 30406 ft 413 kts 281°
2026-05-04 22:29 51.50434 2.77053 29951 ft 410 kts 281°
2026-05-04 22:29 51.51150 2.72645 29494 ft 406 kts 281°
2026-05-04 22:29 51.51860 2.68266 29025 ft 403 kts 282°
2026-05-04 22:30 51.52561 2.63931 28563 ft 400 kts 282°
2026-05-04 22:30 51.53253 2.59642 28102 ft 397 kts 282°
2026-05-04 22:30 51.53943 2.55353 27641 ft 394 kts 282°
2026-05-04 22:30 51.54625 2.51105 27183 ft 391 kts 282°
2026-05-04 22:31 51.55409 2.46933 26728 ft 389 kts 287°
2026-05-04 22:31 51.56352 2.42879 26285 ft 387 kts 289°
2026-05-04 22:31 51.57308 2.38849 25836 ft 384 kts 289°
2026-05-04 22:31 51.58242 2.34832 25386 ft 382 kts 289°
2026-05-04 22:32 51.59157 2.30841 24941 ft 379 kts 289°
2026-05-04 22:32 51.60061 2.26870 24498 ft 377 kts 289°
2026-05-04 22:32 51.60956 2.22932 24057 ft 374 kts 289°
2026-05-04 22:32 51.61844 2.19016 23621 ft 372 kts 289°
2026-05-04 22:33 51.62746 2.15131 23186 ft 369 kts 293°
2026-05-04 22:33 51.64078 2.11686 22740 ft 368 kts 310°
2026-05-04 22:33 51.65940 2.08885 22326 ft 367 kts 323°
2026-05-04 22:33 51.68143 2.06824 21919 ft 366 kts 331°
2026-05-04 22:34 51.70404 2.04950 21506 ft 365 kts 332°
2026-05-04 22:34 51.72664 2.03093 21099 ft 365 kts 332°
2026-05-04 22:34 51.74932 2.01210 20691 ft 368 kts 331°
2026-05-04 22:34 51.77208 1.99297 20282 ft 370 kts 331°
2026-05-04 22:35 51.79481 1.97369 19863 ft 368 kts 331°
2026-05-04 22:35 51.81742 1.95440 19451 ft 367 kts 331°
2026-05-04 22:35 51.83991 1.93518 19039 ft 365 kts 331°
2026-05-04 22:35 51.86231 1.91599 18643 ft 363 kts 331°
2026-05-04 22:36 51.88449 1.89659 18239 ft 361 kts 327°
2026-05-04 22:36 51.90281 1.86960 17873 ft 356 kts 305°
2026-05-04 22:36 51.91554 1.83566 17591 ft 350 kts 297°
2026-05-04 22:36 51.92689 1.80105 17269 ft 347 kts 296°
2026-05-04 22:37 51.93799 1.76637 16961 ft 345 kts 296°
2026-05-04 22:37 51.94903 1.73191 16656 ft 343 kts 296°
2026-05-04 22:37 51.96007 1.69770 16352 ft 342 kts 296°
2026-05-04 22:37 51.97113 1.66363 16049 ft 341 kts 297°
2026-05-04 22:38 51.98219 1.62968 15746 ft 340 kts 297°
2026-05-04 22:38 51.98952 1.60726 15544 ft 340 kts 297°
2026-05-04 22:38 52.00059 1.57341 15248 ft 339 kts 297°
2026-05-04 22:38 52.01165 1.53960 14947 ft 339 kts 297°
2026-05-04 22:39 52.02267 1.50588 14652 ft 338 kts 297°
2026-05-04 22:39 52.03366 1.47221 14344 ft 337 kts 297°
2026-05-04 22:39 52.04462 1.43858 14043 ft 336 kts 297°
2026-05-04 22:39 52.05553 1.40506 13744 ft 335 kts 297°
2026-05-04 22:40 52.06637 1.37169 13439 ft 334 kts 297°
2026-05-04 22:40 52.07718 1.33841 13151 ft 332 kts 297°
2026-05-04 22:40 52.08791 1.30532 12857 ft 330 kts 297°
2026-05-04 22:40 52.09857 1.27237 12561 ft 326 kts 297°
2026-05-04 22:41 52.10900 1.24000 12271 ft 321 kts 296°
2026-05-04 22:41 52.11495 1.20571 11959 ft 315 kts 272°
2026-05-04 22:41 52.11299 1.17066 11715 ft 309 kts 258°
2026-05-04 22:41 52.10778 1.13712 11451 ft 304 kts 255°
2026-05-04 22:42 52.10205 1.10419 11177 ft 300 kts 254°
2026-05-04 22:42 52.09636 1.07189 10912 ft 296 kts 255°
2026-05-04 22:42 52.09079 1.03991 10648 ft 292 kts 255°
2026-05-04 22:42 52.08536 1.00833 10396 ft 289 kts 255°
2026-05-04 22:43 52.08003 0.97705 10139 ft 285 kts 255°
2026-05-04 22:43 52.07480 0.94615 9883 ft 282 kts 255°
2026-05-04 22:43 52.06963 0.91555 9642 ft 279 kts 255°
2026-05-04 22:43 52.06453 0.88532 9397 ft 276 kts 255°
2026-05-04 22:44 52.05948 0.85539 9152 ft 273 kts 255°
2026-05-04 22:44 52.05449 0.82576 8914 ft 271 kts 255°
2026-05-04 22:44 52.04952 0.79634 8682 ft 269 kts 255°
2026-05-04 22:44 52.04463 0.76746 8440 ft 268 kts 255°
2026-05-04 22:45 52.03971 0.73842 8204 ft 266 kts 255°
2026-05-04 22:45 52.02995 0.68081 8039 ft 260 kts 255°
2026-05-04 22:45 52.02523 0.65311 8031 ft 249 kts 255°
2026-05-04 22:46 52.02072 0.62668 8025 ft 237 kts 255°
2026-05-04 22:46 52.01642 0.60124 8022 ft 225 kts 257°
2026-05-04 22:46 52.01448 0.57677 8049 ft 220 kts 268°
2026-05-04 22:46 52.01342 0.55180 8064 ft 225 kts 266°
2026-05-04 22:47 52.01214 0.52616 7981 ft 233 kts 266°
2026-05-04 22:47 52.01075 0.49950 7723 ft 238 kts 265°
2026-05-04 22:47 52.00932 0.47267 7474 ft 238 kts 265°
2026-05-04 22:47 52.00811 0.44589 7229 ft 237 kts 267°
2026-05-04 22:48 52.00708 0.41923 6973 ft 237 kts 267°
2026-05-04 22:48 52.00604 0.39245 6722 ft 237 kts 267°
2026-05-04 22:48 52.00499 0.36583 6526 ft 235 kts 267°
2026-05-04 22:48 52.00393 0.33949 6320 ft 233 kts 267°
2026-05-04 22:49 52.00288 0.31337 6117 ft 231 kts 267°
2026-05-04 22:49 52.00141 0.28763 5903 ft 229 kts 257°
2026-05-04 22:49 51.99424 0.26482 5709 ft 227 kts 235°
2026-05-04 22:49 51.98372 0.24588 5503 ft 227 kts 224°
2026-05-04 22:50 51.97216 0.22843 5305 ft 227 kts 223°
2026-05-04 22:50 51.96049 0.21123 5107 ft 227 kts 223°
2026-05-04 22:50 51.94890 0.19400 4910 ft 227 kts 223°
2026-05-04 22:50 51.93723 0.17657 4712 ft 228 kts 223°
2026-05-04 22:51 51.92556 0.15907 4513 ft 229 kts 224°
2026-05-04 22:51 51.91385 0.14160 4314 ft 229 kts 224°
2026-05-04 22:51 51.90217 0.12391 4116 ft 230 kts 224°
2026-05-04 22:51 51.89046 0.10621 3919 ft 231 kts 224°
2026-05-04 22:52 51.87871 0.08847 3721 ft 231 kts 224°
2026-05-04 22:52 51.86693 0.07069 3523 ft 232 kts 224°
2026-05-04 22:52 51.85513 0.05287 3322 ft 231 kts 224°
2026-05-04 22:52 51.84348 0.03506 3117 ft 230 kts 224°
2026-05-04 22:53 51.83193 0.01744 2909 ft 227 kts 224°
2026-05-04 22:53 51.82041 -0.00006 2713 ft 227 kts 224°
2026-05-04 22:53 51.80898 -0.01729 2575 ft 220 kts 219°
2026-05-04 22:53 51.79567 -0.02683 2504 ft 204 kts 181°
2026-05-04 22:54 51.78223 -0.02262 2512 ft 198 kts 154°
2026-05-04 22:54 51.77116 -0.01007 2505 ft 194 kts 132°
2026-05-04 22:54 51.76368 0.00752 2488 ft 188 kts 109°
2026-05-04 22:54 51.76143 0.02755 2493 ft 183 kts 85°
2026-05-04 22:55 51.76431 0.04744 2511 ft 184 kts 63°
2026-05-04 22:55 51.77217 0.06354 2511 ft 184 kts 42°
2026-05-04 22:55 51.78130 0.07820 2502 ft 186 kts 44°
2026-05-04 22:55 51.79054 0.09289 2493 ft 186 kts 43°
2026-05-04 22:56 51.80003 0.10708 2365 ft 185 kts 41°
2026-05-04 22:56 51.80932 0.12088 2146 ft 179 kts 42°
2026-05-04 22:56 51.81837 0.13447 1899 ft 175 kts 43°
2026-05-04 22:56 51.82721 0.14780 1692 ft 172 kts 43°
2026-05-04 22:57 51.83585 0.16083 1458 ft 167 kts 43°
2026-05-04 22:57 51.84403 0.17315 1273 ft 153 kts 43°
2026-05-04 22:57 51.85149 0.18439 1048 ft 142 kts 43°
2026-05-04 22:57 51.85862 0.19513 849 ft 139 kts 43°
2026-05-04 22:58 51.86568 0.20581 672 ft 139 kts 43°
2026-05-04 22:58 51.87284 0.21656 465 ft 141 kts 43°
2026-05-04 22:58 51.87999 0.22733 331 ft 136 kts 42°
2026-05-04 22:58 51.88549 0.23554 346 ft 77 kts 43°
2026-05-04 22:59 51.88874 0.24039 352 ft 59 kts 43°
2026-05-04 22:59 51.89043 0.24334 351 ft 28 kts 58°
2026-05-04 22:59 51.89119 0.24614 349 ft 26 kts 67°
2026-05-04 22:59 51.89162 0.24848 348 ft 18 kts 105°
2026-05-04 23:00 51.89201 0.25018 354 ft 17 kts 46°
2026-05-04 23:00 51.89265 0.25179 354 ft 18 kts 53°
2026-05-04 23:00 51.89371 0.25340 351 ft 23 kts 42°
2026-05-04 23:00 51.89404 0.25505 351 ft 15 kts 130°
2026-05-04 23:01 51.89334 0.25627 359 ft 15 kts 133°
2026-05-04 23:01 51.89267 0.25745 351 ft 14 kts 133°
2026-05-04 23:01 51.89203 0.25857 351 ft 13 kts 132°
2026-05-04 23:01 51.89206 0.25912 351 ft 5 kts 42°
2026-05-04 23:02 51.89230 0.25947 353 ft 5 kts 43°
2026-05-04 23:02 51.89238 0.25959 358 ft 0 kts 43°